When you browse on this site, cookies collect data to enhance your experience and personalize the content and advertising you see.
Visit our Privacy Policy to learn more. By continuing to use the site, you agree to this use of cookies and data.
  • En España
  • Lista de países
  • Para 7 días
  • Temperatura del agua
  • El tiempo en el mapa
  • Informadores
  • user-avatar
    Iniciar sesión

    Tiempo cada hora Zaleschiki

    Hoy, 6 Junio, Sábado

    Tiempo Temperatura Precipitaciones Viento Presión Humedad
    00:00 +18°C° 0 mm 3 mps 729 mmHg 92%
    01:00 +17°C° 0 mm 3 mps 729 mmHg 92%
    02:00 +16°C° 0 mm 1 mps 730 mmHg 86%
    03:00 +16°C° 0 mm 2 mps 730 mmHg 92%
    04:00 +16°C° 0 mm 1 mps 730 mmHg 92%
    05:00 +16°C° 0 mm 2 mps 731 mmHg 91%
    06:00 +17°C° 0 mm 2 mps 731 mmHg 92%
    07:00 +18°C° 0 mm 2 mps 732 mmHg 92%
    08:00 +20°C° 0 mm 2 mps 732 mmHg 86%
    09:00 +23°C° 0 mm 1 mps 733 mmHg 80%
    10:00 +23°C° 0 mm 1 mps 733 mmHg 76%
    11:00 +22°C° 0 mm 0 mps 733 mmHg 74%
    12:00 +23°C° 0 mm 0 mps 733 mmHg 74%
    13:00 +25°C° 0 mm 1 mps 733 mmHg 74%
    14:00 +24°C° 0 mm 0 mps 733 mmHg 72%
    15:00 +23°C° 1 mm 5 mps 733 mmHg 84%
    16:00 +21°C° 9.2 mm 3 mps 733 mmHg 90%
    17:00 +19°C° 5.3 mm 2 mps 733 mmHg 97%
    18:00 +20°C° 1.2 mm 4 mps 733 mmHg 93%
    19:00 +20°C° 0 mm 2 mps 733 mmHg 95%
    20:00 +20°C° 0 mm 1 mps 732 mmHg 96%
    21:00 +19°C° 0 mm 2 mps 732 mmHg 97%
    22:00 +18°C° 0 mm 3 mps 732 mmHg 98%
    23:00 +18°C° 0 mm 2 mps 732 mmHg 98%

    Mañana, 7 Junio, Domingo

    Tiempo Temperatura Precipitaciones Viento Presión Humedad
    00:00 +18°C° 0 mm 2 mps 732 mmHg 98%
    01:00 +17°C° 0 mm 2 mps 732 mmHg 100%
    02:00 +18°C° 0 mm 1 mps 732 mmHg 100%
    03:00 +18°C° 0 mm 1 mps 732 mmHg 100%
    04:00 +18°C° 0 mm 2 mps 732 mmHg 100%
    05:00 +18°C° 0 mm 3 mps 732 mmHg 100%
    06:00 +18°C° 0 mm 3 mps 732 mmHg 100%
    07:00 +19°C° 0 mm 3 mps 732 mmHg 100%
    08:00 +19°C° 0 mm 3 mps 732 mmHg 99%
    09:00 +21°C° 0 mm 3 mps 733 mmHg 96%
    10:00 +23°C° 0 mm 4 mps 733 mmHg 90%
    11:00 +25°C° 0 mm 4 mps 733 mmHg 85%
    12:00 +26°C° 0 mm 6 mps 733 mmHg 80%
    13:00 +26°C° 0 mm 6 mps 733 mmHg 76%
    14:00 +26°C° 0 mm 7 mps 733 mmHg 78%
    15:00 +26°C° 0 mm 6 mps 733 mmHg 76%
    16:00 +26°C° 0 mm 6 mps 732 mmHg 79%
    17:00 +24°C° 0 mm 6 mps 732 mmHg 83%
    18:00 +25°C° 0 mm 5 mps 733 mmHg 87%
    19:00 +23°C° 0 mm 4 mps 732 mmHg 91%
    20:00 +22°C° 0 mm 4 mps 732 mmHg 95%
    21:00 +21°C° 0 mm 4 mps 732 mmHg 97%
    22:00 +20°C° 0 mm 3 mps 733 mmHg 99%
    23:00 +20°C° 0 mm 3 mps 733 mmHg 100%

    Pasado mañana, 8 Junio, Lunes

    Tiempo Temperatura Precipitaciones Viento Presión Humedad
    00:00 +19°C° 0 mm 3 mps 733 mmHg 100%
    01:00 +18°C° 0 mm 3 mps 733 mmHg 100%
    02:00 +18°C° 0 mm 2 mps 733 mmHg 100%
    03:00 +17°C° 0 mm 2 mps 732 mmHg 100%
    04:00 +17°C° 0 mm 2 mps 732 mmHg 100%
    05:00 +16°C° 0 mm 2 mps 732 mmHg 100%
    06:00 +17°C° 0 mm 2 mps 732 mmHg 99%
    07:00 +18°C° 0 mm 2 mps 733 mmHg 97%
    08:00 +20°C° 0 mm 2 mps 733 mmHg 97%
    09:00 +21°C° 0 mm 3 mps 733 mmHg 97%
    10:00 +21°C° 0 mm 3 mps 733 mmHg 97%
    11:00 +21°C° 0 mm 4 mps 733 mmHg 95%
    12:00 +22°C° 0 mm 4 mps 733 mmHg 93%
    13:00 +24°C° 0 mm 3 mps 732 mmHg 92%
    14:00 +23°C° 0 mm 4 mps 732 mmHg 88%
    15:00 +23°C° 0 mm 4 mps 731 mmHg 88%
    16:00 +25°C° 0 mm 5 mps 731 mmHg 86%
    17:00 +23°C° 0 mm 4 mps 731 mmHg 86%
    18:00 +23°C° 0 mm 5 mps 731 mmHg 92%
    19:00 +22°C° 0 mm 5 mps 731 mmHg 93%
    20:00 +21°C° 0 mm 4 mps 731 mmHg 95%
    21:00 +21°C° 0 mm 4 mps 731 mmHg 97%
    22:00 +20°C° 0 mm 3 mps 731 mmHg 99%
    23:00 +20°C° 0 mm 4 mps 731 mmHg 99%

    9 Junio, Martes

    Tiempo Temperatura Precipitaciones Viento Presión Humedad
    00:00 +20°C° 0 mm 3 mps 731 mmHg 100%
    01:00 +19°C° 0 mm 3 mps 731 mmHg 100%
    02:00 +19°C° 0 mm 2 mps 731 mmHg 100%
    03:00 +19°C° 0 mm 2 mps 731 mmHg 100%
    04:00 +19°C° 0 mm 2 mps 731 mmHg 100%
    05:00 +19°C° 0 mm 3 mps 731 mmHg 100%
    06:00 +19°C° 0 mm 2 mps 731 mmHg 100%
    07:00 +19°C° 0 mm 3 mps 732 mmHg 100%
    08:00 +19°C° 0 mm 3 mps 732 mmHg 100%
    09:00 +19°C° 0 mm 3 mps 732 mmHg 100%
    10:00 +20°C° 0 mm 3 mps 733 mmHg 100%
    11:00 +21°C° 0 mm 4 mps 733 mmHg 97%
    12:00 +22°C° 0 mm 4 mps 732 mmHg 95%
    13:00 +22°C° 0 mm 4 mps 733 mmHg 91%
    14:00 +23°C° 0 mm 4 mps 732 mmHg 89%
    15:00 +24°C° 0 mm 3 mps 732 mmHg 86%
    16:00 +25°C° 0 mm 2 mps 732 mmHg 84%
    17:00 +25°C° 0 mm 2 mps 732 mmHg 84%
    18:00 +25°C° 0 mm 2 mps 732 mmHg 85%
    19:00 +24°C° 0 mm 2 mps 732 mmHg 89%
    20:00 +22°C° 0 mm 3 mps 732 mmHg 95%
    21:00 +21°C° 0 mm 3 mps 732 mmHg 97%
    22:00 +20°C° 0 mm 2 mps 732 mmHg 100%
    23:00 +20°C° 0 mm 2 mps 732 mmHg 100%

    10 Junio, Miércoles

    Tiempo Temperatura Precipitaciones Viento Presión Humedad
    00:00 +19°C° 0 mm 2 mps 732 mmHg 100%
    01:00 +20°C° 0 mm 1 mps 732 mmHg 100%
    02:00 +20°C° 0 mm 1 mps 732 mmHg 100%
    03:00 +20°C° 0 mm 1 mps 732 mmHg 100%
    04:00 +18°C° 0 mm 0 mps 732 mmHg 100%
    05:00 +18°C° 0 mm 0 mps 732 mmHg 100%
    06:00 +18°C° 0 mm 0 mps 732 mmHg 100%
    07:00 +18°C° 0 mm 0 mps 733 mmHg 100%
    08:00 +19°C° 0 mm 0 mps 733 mmHg 97%
    09:00 +19°C° 0 mm 0 mps 733 mmHg 95%
    10:00 +22°C° 0 mm 1 mps 733 mmHg 93%
    11:00 +24°C° 0 mm 1 mps 733 mmHg 89%
    12:00 +24°C° 0 mm 3 mps 733 mmHg 88%
    13:00 +25°C° 0 mm 3 mps 732 mmHg 87%
    14:00 +25°C° 0.1 mm 2 mps 732 mmHg 84%
    15:00 +24°C° 3.2 mm 2 mps 732 mmHg 91%
    16:00 +25°C° 0.1 mm 4 mps 731 mmHg 87%
    17:00 +25°C° 0.1 mm 4 mps 731 mmHg 87%
    18:00 +24°C° 0 mm 3 mps 731 mmHg 89%
    19:00 +24°C° 0 mm 2 mps 731 mmHg 92%
    20:00 +23°C° 0 mm 2 mps 731 mmHg 95%
    21:00 +21°C° 0 mm 2 mps 731 mmHg 98%
    22:00 +21°C° 0 mm 3 mps 731 mmHg 99%
    23:00 +20°C° 0 mm 3 mps 731 mmHg 99%

    11 Junio, Jueves

    Tiempo Temperatura Precipitaciones Viento Presión Humedad
    00:00 +20°C° 0 mm 3 mps 732 mmHg 100%
    01:00 +20°C° 0 mm 3 mps 731 mmHg 100%
    02:00 +20°C° 0 mm 3 mps 731 mmHg 100%
    03:00 +20°C° 0 mm 2 mps 731 mmHg 100%
    04:00 +20°C° 0 mm 3 mps 731 mmHg 100%
    05:00 +19°C° 0 mm 3 mps 731 mmHg 100%
    06:00 +19°C° 0 mm 3 mps 731 mmHg 100%
    07:00 +19°C° 0 mm 3 mps 732 mmHg 100%
    08:00 +19°C° 0 mm 3 mps 732 mmHg 100%
    09:00 +19°C° 0 mm 3 mps 732 mmHg 98%
    10:00 +19°C° 0 mm 2 mps 732 mmHg 98%
    11:00 +20°C° 0 mm 2 mps 732 mmHg 97%
    12:00 +21°C° 0 mm 4 mps 732 mmHg 97%
    13:00 +21°C° 0 mm 5 mps 732 mmHg 96%
    14:00 +22°C° 0 mm 5 mps 732 mmHg 95%
    15:00 +22°C° 0 mm 4 mps 731 mmHg 95%
    16:00 +23°C° 0 mm 4 mps 731 mmHg 93%
    17:00 +23°C° 0 mm 4 mps 731 mmHg 92%
    18:00 +23°C° 0 mm 4 mps 731 mmHg 93%
    19:00 +22°C° 0 mm 4 mps 731 mmHg 94%
    20:00 +22°C° 0 mm 4 mps 731 mmHg 95%
    21:00 +21°C° 0 mm 5 mps 731 mmHg 97%
    22:00 +21°C° 0 mm 4 mps 732 mmHg 99%
    23:00 +20°C° 0 mm 4 mps 732 mmHg 99%
    Mostrar más